Weather Roundup
Issued by NWS

Home | Current Version | Previous Version | Text Only | Print | Product List | Glossary On
Versions: 1 2 3 4 5 6 7 8 9 10 11 12 13 14 15 16 17 18 19 20 21 22 23 24 25 26 27 28 29 30 31 32 33 34 35 36 37 38 39 40 41 42 43 44 45 46 47 48 49 50
000
NZUS93 KARX 011510
HRRWXR

CURRENT HOURLY OBSERVATIONS ACROSS
MUCH OF THE UPPER MISSISSIPPI VALLEY
NATIONAL WEATHER SERVICE LA CROSSE WI
900 AM CST SUN FEB 01 2015


...SOUTHEAST MINNESOTA...


CITY           SKY/WX    TMP DP  RH WIND       PRES   REMARKS
ROCHESTER      LGT SNOW  13   9  84 NE22G32   30.07S VSB 3/4 WCI  -6
ROCHESTER/MAYO CLOUDY    14  10  82 N12G21    30.11S WCI   0
WINONA         LGT SNOW  16  12  86 NE9G18    30.18R WCI   4
AUSTIN         LGT SNOW  16  10  79 NE20G30   30.04S WCI  -1
ALBERT LEA     LGT SNOW  16  12  86 NE17G25   30.06R WCI   0
DODGE CENTER   LGT SNOW  12  10  92 NE17G24   30.09R WCI  -5
PRESTON        CLOUDY    13  10  87 NE20G26   30.05S WCI  -5
OWATONNA       LGT SNOW  14   9  79 NE20G26   30.12R WCI  -3
FARIBAULT      LGT SNOW  12   9  85 N16G24    30.16R WCI  -4
$$

...ELSEWHERE IN MINNESOTA...


CITY           SKY/WX    TMP DP  RH WIND       PRES   REMARKS
MINNEAPOLIS    CLOUDY    13   3  64 N18       30.24R WCI  -4
INTNL FALLS    HAZE     -16 -22  74 N6        30.47S VSB 1   WCI -31
DULUTH         PTSUNNY   -3 -11  68 N9        30.32R WCI -19
RED WING       LGT SNOW  12   7  79 E13       30.21R WCI  -3
REDWOOD FALLS  LGT SNOW  11   5  77 N13G24    30.24R WCI  -4
MANKATO        CLOUDY   N/A N/A N/A NE22G30   30.15R VSB 3/4
WORTHINGTON    CLOUDY    28   3  34 N28       30.12R VSB 1/2 WCI  13
FAIRMONT       CLOUDY    16  10  79 N16G26    30.09R VSB 1   WCI   0
$$

...SOUTHWEST WISCONSIN...


CITY           SKY/WX    TMP DP  RH WIND       PRES   REMARKS
LA CROSSE      LGT SNOW  16  10  77 N9        30.14S WCI   4
PRAIRIE DU CHI LGT SNOW  18  12  79 NE7G17    30.03F VSB 1   WCI   8
BOSCOBEL       HVY SNOW  17  12  80 NE15G24   30.05F VSB 1/4 WCI   2
LONE ROCK      SNOW      17  11  77 NE16G23   30.06F VSB 1/2 WCI   2
PLATTEVILLE    CLOUDY    18  15  89 N26G36    29.93F VSB 1/2 WCI   0
FORT MC COY    LGT SNOW  14   9  82 NE10G21   30.14F WCI   1
CAMP DOUGLAS   LGT SNOW  12  12 100 NE9       30.14S VSB 1   WCI   0
VIROQUA        CLOUDY    13  10  88 NE20G25   30.04F VSB 3/4 WCI  -5
WIS DELLS      LGT SNOW  13  10  85 NE16      30.07F VSB 3/4 WCI  -3
$$

...ELSEWHERE IN WISCONSIN...


CITY           SKY/WX    TMP DP  RH WIND       PRES   REMARKS
MILWAUKEE      SNOW      23  19  85 NE25G32   30.05F VSB 1/4 WCI   7
MADISON        SNOW      16  11  80 NE20      30.04F VSB 1/2 WCI  -1
GREEN BAY      LGT SNOW  11   6  81 NE32G38   30.22R WCI -12
EAU CLAIRE     CLOUDY    11   1  64 NE16G25   30.21F WCI  -6
BLACK RVR FLS  LGT SNOW  13   8  81 NE10G17   30.17S WCI   0
MEDFORD        CLOUDY     8   1  73 NE14G21   30.17F WCI  -9
WAUSAU         CLOUDY    10   1  67 NE14G22   30.17F WCI  -6
WIS RAPIDS     LGT SNOW  11   5  77 NE10G20   30.18S VSB 1   WCI  -3
MARSHFIELD     CLOUDY    11   3  70 NE15      30.16F WCI  -5
RICE LAKE      CLOUDY     9   1  67 NE10G16   30.28S WCI  -5
$$

...NORTHEAST IOWA...


CITY           SKY/WX    TMP DP  RH WIND       PRES   REMARKS
DECORAH        LGT SNOW  14  12  92 NE13G23   30.00S VSB 1   WCI   0
MASON CITY     SNOW      17  14  88 NE26G33   30.00R VSB 1/2 WCI  -2
CHARLES CITY   SNOW      16  14  93 NE23G33   29.97S VSB 1/2 WCI  -2
OELWEIN        SNOW      18  14  86 NE26G33   29.91S VSB 1/2 WCI  -1
$$

...ELSEWHERE IN IOWA...


CITY           SKY/WX    TMP DP  RH WIND       PRES   REMARKS
DES MOINES     SNOW      31  28  89 NE18G25   29.81R VSB 1/2 WCI  19
IOWA CITY      LGT SNOW  28  26  92 NE21G30   29.83F VSB 3/4 WCI  15
FORT DODGE     CLOUDY    19  16  86 CALM      29.97R VSB 1
$$

...NORTHERN ILLINOIS...


CITY           SKY/WX    TMP DP  RH WIND       PRES   REMARKS
CHICAGO-OHARE  SNOW      29  27  92 NE17      29.92F VSB 1/2 WCI  17
CHICAGO-MIDWAY SNOW      33  31  92 E16       29.91F VSB 1/2 WCI  23
MOLINE         SNOW      31  29  92 NE23G31   29.81F VSB 1/2 WCI  18
ROCKFORD       SNOW      26  22  84 NE21G29   29.94S VSB 1/2 WCI  12
PEORIA         LGT SNOW  34  32  92 E9        29.78F VSB 3/4 WCI  27
$$

NOTE: "FAIR" INDICATES FEW OR NO CLOUDS BELOW 12,000 FEET WITH NO
SIGNIFICANT WEATHER AND/OR OBSTRUCTIONS TO VISIBILITY. WIND
SPEEDS ARE IN MILES-PER-HOUR.



USA.gov is the U.S. government's official web portal to all federal, state and local government web resources and services.